Location: ????
(55.5675°N, 37.6272°E)
Time: 10:58:52
(UTC+00:00)

ASTEX 1 - Pass Details

Date: 14 April 2026
Orbit: 713 x 733 km, 92.7° (Epoch: 10 May)

Event Time Altitude Azimuth Distance (km) Brightness Sun altitude
Exits shadow 18:21:33 16° 164° (SSE) 1,826 5.0 -14.0°
Maximum altitude 18:25:27 76° 81° (E) 753 3.3 -14.4°
Drops below altitude 10° 18:30:23 10° 356° (N) 2,238 6.6 -14.9°
Sets 18:32:42 0° 355° (N) 3,167 7.5 -15.2°
